Total_Precipitation_Accumulation
0.00 0.00 0.00 0.00 0.00 0.00 0.00 0.00 0.01 0.02 0.02 0.02 0.02 0.03 0.02 0.01 0.04 0.20 0.05 0.04 0.04 0.01 0.00 0.00 0.01 0.01 0.01 0.01 0.03 0.04 0.06 0.06 0.06 0.06 0.05 0.05 0.06 0.06 0.06 0.06 0.06 0.09 0.11 0.10 0.08 0.07 0.05 0.03 0.01
0.00 0.00 0.00 0.00 0.00 0.00 0.00 0.00 0.01 0.02 0.02 0.02 0.02 0.01 0.01 0.00 0.00 0.01 0.01 0.02 0.03 0.01 0.00 0.00 0.00 0.01 0.01 0.01 0.02 0.04 0.05 0.05 0.05 0.05 0.04 0.04 0.05 0.06 0.06 0.07 0.08 0.12 0.15 0.12 0.08 0.05 0.03 0.01 0.00
0.00 0.00 0.00 0.00 0.00 0.00 0.01 0.02 0.02 0.02 0.03 0.03 0.02 0.01 0.01 0.00 0.00 0.00 0.01 0.02 0.02 0.01 0.00 0.00 0.01 0.01 0.01 0.01 0.01 0.02 0.03 0.03 0.04 0.04 0.04 0.04 0.04 0.05 0.07 0.11 0.14 0.15 0.15 0.15 0.12 0.07 0.04 0.01 0.00
0.00 0.00 0.00 0.00 0.00 0.00 0.01 0.02 0.02 0.02 0.02 0.02 0.01 0.01 0.01 0.00 0.00 0.00 0.01 0.01 0.01 0.01 0.00 0.00 0.01 0.01 0.01 0.01 0.01 0.01 0.02 0.03 0.04 0.04 0.04 0.05 0.05 0.06 0.09 0.17 0.22 0.21 0.18 0.21 0.20 0.16 0.10 0.04 0.02
0.00 0.00 0.00 0.00 0.00 0.00 0.00 0.01 0.03 0.01 0.01 0.01 0.01 0.01 0.01 0.00 0.00 0.00 0.01 0.01 0.01 0.02 0.00 0.00 0.01 0.02 0.01 0.01 0.01 0.02 0.03 0.04 0.06 0.06 0.06 0.06 0.06 0.07 0.13 0.21 0.23 0.23 0.22 0.23 0.20 0.14 0.07 0.05 0.05
0.00 0.00 0.00 0.00 0.00 0.00 0.00 0.01 0.02 0.02 0.01 0.01 0.01 0.02 0.03 0.02 0.01 0.01 0.01 0.01 0.01 0.02 0.00 0.00 0.01 0.03 0.02 0.01 0.02 0.03 0.04 0.06 0.07 0.07 0.07 0.05 0.05 0.07 0.12 0.17 0.21 0.23 0.20 0.15 0.12 0.09 0.08 0.09 0.09
0.00 0.00 0.00 0.00 0.00 0.00 0.01 0.01 0.02 0.02 0.02 0.02 0.02 0.02 0.05 0.03 0.01 0.01 0.02 0.03 0.03 0.02 0.01 0.01 0.02 0.02 0.02 0.01 0.02 0.03 0.04 0.05 0.05 0.05 0.04 0.03 0.05 0.07 0.11 0.15 0.20 0.21 0.14 0.09 0.09 0.07 0.06 0.06 0.06
0.00 0.00 0.00 0.00 0.00 0.00 0.01 0.02 0.02 0.03 0.06 0.04 0.02 0.03 0.09 0.05 0.01 0.02 0.04 0.08 0.10 0.07 0.04 0.04 0.05 0.02 0.01 0.01 0.01 0.01 0.02 0.02 0.02 0.02 0.02 0.04 0.08 0.09 0.12 0.11 0.12 0.12 0.08 0.05 0.03 0.02 0.01 0.01 0.01
0.00 0.00 0.00 0.00 0.00 0.00 0.01 0.02 0.03 0.03 0.04 0.03 0.02 0.04 0.13 0.04 0.01 0.02 0.05 0.09 0.15 0.19 0.18 0.16 0.10 0.03 0.01 0.01 0.00 0.00 0.00 0.00 0.01 0.02 0.03 0.07 0.12 0.13 0.14 0.09 0.09 0.06 0.03 0.01 0.01 0.00 0.00 0.00 0.00
0.00 0.00 0.00 0.00 0.00 0.00 0.00 0.02 0.02 0.02 0.02 0.02 0.02 0.04 0.08 0.03 0.01 0.03 0.08 0.09 0.11 0.25 0.25 0.08 0.06 0.01 0.00 0.00 0.00 0.00 0.00 0.00 0.01 0.05 0.04 0.09 0.16 0.19 0.15 0.11 0.06 0.03 0.01 0.01 0.00 0.00 0.00 0.00 0.00
0.00 0.00 0.00 0.00 0.00 0.00 0.00 0.01 0.02 0.02 0.03 0.03 0.04 0.07 0.08 0.04 0.03 0.06 0.10 0.10 0.08 0.07 0.05 0.03 0.02 0.00 0.00 0.00 0.00 0.00 0.01 0.01 0.02 0.03 0.05 0.10 0.11 0.08 0.08 0.10 0.07 0.04 0.02 0.03 0.02 0.01 0.00 0.00 0.00
0.00 0.00 0.00 0.00 0.00 0.00 0.00 0.00 0.01 0.02 0.02 0.05 0.07 0.15 0.16 0.08 0.05 0.08 0.13 0.13 0.14 0.08 0.03 0.01 0.01 0.01 0.00 0.00 0.00 0.00 0.01 0.01 0.02 0.02 0.02 0.07 0.11 0.11 0.09 0.12 0.11 0.09 0.07 0.06 0.04 0.03 0.01 0.01 0.01
0.00 0.00 0.00 0.00 0.00 0.00 0.00 0.00 0.00 0.01 0.02 0.03 0.06 0.13 0.14 0.08 0.07 0.11 0.14 0.19 0.23 0.16 0.06 0.03 0.01 0.00 0.00 0.00 0.00 0.00 0.00 0.01 0.01 0.01 0.02 0.04 0.07 0.07 0.08 0.08 0.09 0.07 0.06 0.06 0.04 0.02 0.02 0.03 0.02
0.00 0.00 0.00 0.00 0.00 0.00 0.00 0.00 0.00 0.00 0.01 0.01 0.04 0.06 0.10 0.07 0.07 0.14 0.20 0.24 0.27 0.22 0.09 0.05 0.02 0.01 0.01 0.01 0.00 0.00 0.00 0.02 0.02 0.03 0.03 0.03 0.05 0.08 0.09 0.10 0.11 0.10 0.07 0.08 0.06 0.05 0.05 0.05 0.03
0.00 0.00 0.00 0.00 0.00 0.00 0.00 0.00 0.00 0.00 0.00 0.01 0.02 0.04 0.07 0.10 0.09 0.15 0.30 0.33 0.36 0.28 0.13 0.09 0.05 0.03 0.02 0.01 0.01 0.01 0.02 0.04 0.05 0.06 0.05 0.04 0.05 0.10 0.12 0.15 0.16 0.15 0.13 0.12 0.11 0.10 0.08 0.07 0.07
0.00 0.00 0.00 0.00 0.00 0.00 0.00 0.00 0.00 0.00 0.00 0.00 0.00 0.02 0.04 0.07 0.09 0.11 0.20 0.32 0.41 0.33 0.25 0.17 0.07 0.06 0.04 0.02 0.01 0.01 0.03 0.05 0.07 0.09 0.08 0.07 0.08 0.13 0.18 0.24 0.27 0.27 0.26 0.25 0.24 0.21 0.18 0.16 0.15
0.00 0.00 0.00 0.00 0.00 0.00 0.00 0.00 0.00 0.00 0.00 0.00 0.00 0.01 0.03 0.07 0.09 0.12 0.17 0.26 0.34 0.32 0.24 0.16 0.12 0.08 0.05 0.05 0.04 0.05 0.07 0.09 0.11 0.13 0.14 0.15 0.20 0.27 0.37 0.47 0.48 0.44 0.41 0.38 0.35 0.33 0.31 0.28 0.25
0.00 0.00 0.00 0.00 0.00 0.00 0.00 0.00 0.00 0.00 0.00 0.00 0.00 0.00 0.01 0.04 0.07 0.11 0.14 0.26 0.40 0.41 0.32 0.25 0.18 0.12 0.12 0.14 0.13 0.14 0.16 0.22 0.27 0.32 0.40 0.47 0.58 0.65 0.70 0.71 0.66 0.58 0.52 0.51 0.49 0.44 0.38 0.32 0.26
0.00 0.00 0.00 0.00 0.00 0.00 0.00 0.00 0.00 0.00 0.00 0.00 0.00 0.00 0.01 0.02 0.04 0.09 0.19 0.42 0.67 0.57 0.44 0.32 0.24 0.25 0.30 0.34 0.38 0.52 0.61 0.71 0.89 1.04 1.14 1.19 1.19 1.12 1.06 0.99 0.89 0.76 0.70 0.60 0.48 0.41 0.33 0.27 0.22
0.00 0.00 0.00 0.00 0.00 0.00 0.00 0.00 0.00 0.00 0.00 0.00 0.00 0.00 0.01 0.02 0.04 0.08 0.21 0.45 0.61 0.60 0.56 0.53 0.56 0.55 0.58 0.74 0.95 1.17 1.38 1.58 1.76 1.91 1.95 1.88 1.70 1.51 1.34 1.19 1.03 0.87 0.76 0.63 0.49 0.37 0.29 0.23 0.18
0.00 0.00 0.00 0.00 0.00 0.00 0.00 0.00 0.01 0.00 0.00 0.00 0.00 0.00 0.01 0.02 0.04 0.07 0.16 0.27 0.45 0.56 0.64 0.69 0.83 0.97 1.06 1.26 1.50 1.80 2.11 2.31 2.32 2.22 2.12 1.98 1.80 1.60 1.38 1.19 1.03 0.88 0.72 0.57 0.42 0.30 0.23 0.17 0.13
0.00 0.00 0.00 0.00 0.00 0.00 0.00 0.00 0.01 0.00 0.00 0.01 0.01 0.01 0.01 0.02 0.04 0.06 0.12 0.19 0.30 0.45 0.56 0.70 0.92 1.24 1.59 2.00 2.34 2.55 2.66 2.65 2.50 2.23 1.99 1.72 1.49 1.33 1.16 1.03 0.91 0.73 0.55 0.41 0.29 0.20 0.14 0.10 0.07
0.00 0.00 0.00 0.00 0.00 0.00 0.00 0.00 0.00 0.01 0.01 0.01 0.02 0.02 0.03 0.04 0.05 0.07 0.13 0.21 0.36 0.50 0.69 0.92 1.21 1.63 2.03 2.37 2.64 2.77 2.69 2.50 2.22 1.90 1.57 1.27 1.08 0.99 0.87 0.73 0.58 0.43 0.31 0.24 0.17 0.13 0.10 0.08 0.07
0.00 0.00 0.00 0.00 0.00 0.00 0.00 0.00 0.01 0.02 0.01 0.02 0.03 0.04 0.05 0.06 0.07 0.09 0.14 0.22 0.38 0.59 0.83 1.07 1.34 1.72 2.06 2.24 2.42 2.40 2.32 2.12 1.78 1.43 1.14 0.91 0.76 0.61 0.47 0.38 0.32 0.25 0.17 0.14 0.11 0.08 0.07 0.06 0.05
0.00 0.00 0.00 0.00 0.00 0.00 0.00 0.00 0.03 0.04 0.03 0.03 0.04 0.06 0.07 0.07 0.09 0.12 0.18 0.27 0.40 0.59 0.81 0.97 1.15 1.40 1.62 1.80 1.96 1.88 1.67 1.47 1.26 1.01 0.81 0.64 0.53 0.44 0.33 0.23 0.17 0.12 0.09 0.07 0.05 0.04 0.04 0.04 0.04
0.00 0.00 0.00 0.00 0.00 0.00 0.00 0.03 0.10 0.09 0.08 0.07 0.06 0.07 0.10 0.12 0.15 0.19 0.24 0.31 0.43 0.55 0.69 0.80 0.88 0.98 1.05 1.08 1.11 1.07 0.98 0.87 0.77 0.67 0.58 0.48 0.39 0.29 0.20 0.13 0.10 0.07 0.05 0.04 0.03 0.03 0.02 0.02 0.02
0.00 0.00 0.00 0.00 0.00 0.00 0.01 0.09 0.15 0.16 0.14 0.11 0.11 0.10 0.13 0.17 0.19 0.24 0.30 0.35 0.40 0.44 0.50 0.50 0.49 0.52 0.52 0.49 0.50 0.52 0.50 0.47 0.44 0.40 0.33 0.26 0.21 0.16 0.12 0.08 0.07 0.05 0.04 0.02 0.02 0.02 0.01 0.02 0.03
0.00 0.00 0.00 0.00 0.00 0.00 0.02 0.08 0.15 0.23 0.25 0.22 0.18 0.16 0.16 0.19 0.23 0.28 0.31 0.32 0.30 0.29 0.28 0.26 0.26 0.26 0.24 0.23 0.23 0.24 0.25 0.22 0.21 0.19 0.16 0.14 0.11 0.08 0.05 0.03 0.03 0.02 0.01 0.01 0.01 0.01 0.01 0.02 0.03
0.00 0.00 0.00 0.00 0.00 0.00 0.01 0.09 0.15 0.28 0.37 0.39 0.36 0.27 0.24 0.27 0.33 0.35 0.34 0.27 0.22 0.20 0.18 0.17 0.18 0.16 0.15 0.14 0.14 0.12 0.11 0.10 0.08 0.06 0.06 0.05 0.04 0.03 0.02 0.01 0.01 0.01 0.01 0.01 0.02 0.02 0.03 0.03 0.04
0.00 0.00 0.00 0.00 0.00 0.00 0.02 0.15 0.20 0.38 0.53 0.51 0.46 0.41 0.40 0.46 0.48 0.46 0.38 0.27 0.20 0.16 0.13 0.12 0.12 0.11 0.11 0.10 0.08 0.07 0.06 0.05 0.04 0.03 0.03 0.02 0.02 0.01 0.01 0.01 0.01 0.01 0.01 0.02 0.02 0.03 0.03 0.05 0.05